WAT1820 KDEN-KPBI

Flight info

Callsign WAT1820
Flight time N/A
Altitude 39000
Route EPKEE7 DUUZE ICT RZC KM27K MGMRY ACORI VUUDU1
Aircraft B38M/M-SDE1FGHILORVWXY/HB1

Departure

Time N/A
Airport Denver International Airport (KDEN)

Arrival

Time 2026-05-03 22:49
Airport Palm Beach International Airport (KPBI)
Time Latitude Longitude Altitude Speed Heading
2026-05-03 20:15 38.03104 -98.58741 38883 ft 508 kts 109°
2026-05-03 20:15 38.00734 -98.50275 38885 ft 508 kts 109°
2026-05-03 20:16 37.98373 -98.41864 38886 ft 508 kts 109°
2026-05-03 20:16 37.95991 -98.33409 38905 ft 508 kts 109°
2026-05-03 20:17 37.93602 -98.24953 38889 ft 510 kts 109°
2026-05-03 20:17 37.91220 -98.16550 38885 ft 510 kts 109°
2026-05-03 20:18 37.88814 -98.08089 38879 ft 509 kts 109°
2026-05-03 20:18 37.86406 -97.99647 38882 ft 509 kts 109°
2026-05-03 20:19 37.83994 -97.91212 38882 ft 509 kts 109°
2026-05-03 20:19 37.81589 -97.82825 38889 ft 509 kts 109°
2026-05-03 20:20 37.79163 -97.74388 38899 ft 509 kts 109°
2026-05-03 20:20 37.76736 -97.65976 38898 ft 509 kts 110°
2026-05-03 20:21 37.74198 -97.57613 38911 ft 509 kts 117°
2026-05-03 20:21 37.70966 -97.49720 38905 ft 509 kts 118°
2026-05-03 20:22 37.67701 -97.41783 38936 ft 508 kts 118°
2026-05-03 20:22 37.64434 -97.33866 38924 ft 508 kts 118°
2026-05-03 20:23 37.61178 -97.25995 38925 ft 508 kts 118°
2026-05-03 20:23 37.57895 -97.18081 38925 ft 508 kts 118°
2026-05-03 20:24 37.54610 -97.10179 38927 ft 508 kts 118°
2026-05-03 20:24 37.51339 -97.02330 38931 ft 508 kts 118°
2026-05-03 20:25 37.48038 -96.94431 38936 ft 508 kts 118°
2026-05-03 20:25 37.44739 -96.86556 38947 ft 508 kts 118°
2026-05-03 20:26 37.41456 -96.78736 38953 ft 507 kts 118°
2026-05-03 20:26 37.38154 -96.70893 38954 ft 507 kts 118°
2026-05-03 20:27 37.34837 -96.63032 38963 ft 507 kts 118°
2026-05-03 20:27 37.31542 -96.55242 38962 ft 507 kts 118°
2026-05-03 20:28 37.28216 -96.47397 38952 ft 507 kts 118°
2026-05-03 20:28 37.24914 -96.39630 38965 ft 506 kts 118°
2026-05-03 20:29 37.21593 -96.31836 38966 ft 506 kts 118°
2026-05-03 20:29 37.18825 -96.25354 38965 ft 506 kts 118°
2026-05-03 20:30 37.15488 -96.17556 38968 ft 506 kts 119°
2026-05-03 20:30 37.12153 -96.09783 38970 ft 506 kts 119°
2026-05-03 20:31 37.08798 -96.01982 38976 ft 508 kts 119°
2026-05-03 20:31 37.05457 -95.94232 38969 ft 507 kts 119°
2026-05-03 20:32 37.02096 -95.86454 38973 ft 507 kts 119°
2026-05-03 20:32 36.98747 -95.78721 38975 ft 507 kts 119°
2026-05-03 20:33 36.95380 -95.70966 38987 ft 507 kts 119°
2026-05-03 20:33 36.92019 -95.63243 38982 ft 508 kts 119°
2026-05-03 20:34 36.88627 -95.55468 38986 ft 508 kts 119°
2026-05-03 20:34 36.85255 -95.47756 38975 ft 508 kts 119°
2026-05-03 20:35 36.81852 -95.39994 38995 ft 507 kts 119°
2026-05-03 20:35 36.78469 -95.32293 39023 ft 507 kts 119°
2026-05-03 20:36 36.75059 -95.24551 39004 ft 509 kts 119°
2026-05-03 20:36 36.71654 -95.16838 39010 ft 509 kts 119°
2026-05-03 20:37 36.68228 -95.09094 39010 ft 509 kts 119°
2026-05-03 20:37 36.64816 -95.01401 39011 ft 509 kts 119°
2026-05-03 20:38 36.61381 -94.93674 39032 ft 509 kts 119°
2026-05-03 20:38 36.57928 -94.85923 39009 ft 511 kts 119°
2026-05-03 20:39 36.54480 -94.78205 39031 ft 511 kts 119°
2026-05-03 20:39 36.51013 -94.70459 39032 ft 511 kts 119°
2026-05-03 20:40 36.47562 -94.62770 39039 ft 511 kts 120°
2026-05-03 20:40 36.44090 -94.55050 39057 ft 512 kts 119°
2026-05-03 20:41 36.40601 -94.47310 39050 ft 513 kts 119°
2026-05-03 20:41 36.37127 -94.39618 39071 ft 513 kts 120°
2026-05-03 20:42 36.33627 -94.31885 39072 ft 513 kts 120°
2026-05-03 20:42 36.30126 -94.24167 39075 ft 513 kts 120°
2026-05-03 20:43 36.26636 -94.16490 39078 ft 513 kts 119°
2026-05-03 20:43 36.23347 -94.08629 39086 ft 512 kts 115°
2026-05-03 20:44 36.20212 -94.00705 39068 ft 513 kts 116°
2026-05-03 20:44 36.17038 -93.92769 39050 ft 513 kts 116°
2026-05-03 20:45 36.13877 -93.84887 39059 ft 513 kts 116°
2026-05-03 20:45 36.10696 -93.76971 39063 ft 512 kts 116°
2026-05-03 20:46 36.07535 -93.69127 39049 ft 512 kts 116°
2026-05-03 20:46 36.04348 -93.61241 39048 ft 512 kts 116°
2026-05-03 20:47 36.01159 -93.53364 39043 ft 512 kts 116°
2026-05-03 20:47 35.97964 -93.45493 39052 ft 512 kts 116°
2026-05-03 20:48 35.94784 -93.37676 39055 ft 512 kts 116°
2026-05-03 20:48 35.91583 -93.29829 39057 ft 512 kts 116°
2026-05-03 20:49 35.88369 -93.21967 39058 ft 512 kts 116°
2026-05-03 20:49 35.85160 -93.14136 39067 ft 512 kts 116°
2026-05-03 20:50 35.81948 -93.06318 39058 ft 512 kts 116°
2026-05-03 20:50 35.78720 -92.98479 39061 ft 510 kts 116°
2026-05-03 20:51 35.75511 -92.90705 39065 ft 510 kts 116°
2026-05-03 20:51 35.72282 -92.82900 39072 ft 511 kts 116°
2026-05-03 20:52 35.69073 -92.75164 39072 ft 510 kts 117°
2026-05-03 20:52 35.65841 -92.67388 39083 ft 509 kts 116°
2026-05-03 20:53 35.62610 -92.59635 39081 ft 507 kts 117°
2026-05-03 20:53 35.59398 -92.51945 39083 ft 508 kts 117°
2026-05-03 20:54 35.56160 -92.44211 39085 ft 508 kts 117°
2026-05-03 20:54 35.51320 -92.32683 39086 ft 508 kts 117°
2026-05-03 20:55 35.48076 -92.24977 39086 ft 507 kts 117°
2026-05-03 20:55 35.44836 -92.17300 39087 ft 505 kts 117°
2026-05-03 20:56 35.41609 -92.09671 39101 ft 506 kts 117°
2026-05-03 20:56 35.38355 -92.01997 39097 ft 505 kts 117°
2026-05-03 20:57 35.35125 -91.94396 39105 ft 506 kts 117°
2026-05-03 20:57 35.31865 -91.86742 39131 ft 505 kts 117°
2026-05-03 20:58 35.28630 -91.79165 39129 ft 504 kts 117°
2026-05-03 20:58 35.25371 -91.71548 39127 ft 504 kts 117°
2026-05-03 20:59 35.22130 -91.63990 39115 ft 504 kts 117°
2026-05-03 20:59 35.18860 -91.56381 39127 ft 504 kts 117°
2026-05-03 21:00 35.16688 -91.51339 39141 ft 505 kts 117°
2026-05-03 21:00 35.12315 -91.41205 39135 ft 503 kts 117°
2026-05-03 21:01 35.09059 -91.33680 39136 ft 503 kts 118°
2026-05-03 21:01 35.05778 -91.26115 39136 ft 503 kts 118°
2026-05-03 21:02 35.02519 -91.18616 39130 ft 503 kts 118°
2026-05-03 21:02 34.99234 -91.11075 39139 ft 503 kts 118°
2026-05-03 21:03 34.95943 -91.03536 39129 ft 503 kts 118°
2026-05-03 21:03 34.92649 -90.96008 39125 ft 503 kts 118°
2026-05-03 21:04 34.89369 -90.88528 39114 ft 503 kts 118°
2026-05-03 21:04 34.86062 -90.81003 39115 ft 503 kts 118°
2026-05-03 21:05 34.82769 -90.73527 39128 ft 503 kts 118°
2026-05-03 21:05 34.79459 -90.66029 39121 ft 502 kts 118°
2026-05-03 21:06 34.76142 -90.58530 39122 ft 502 kts 118°
2026-05-03 21:06 34.72825 -90.51049 39101 ft 502 kts 118°
2026-05-03 21:07 34.69515 -90.43599 39118 ft 503 kts 118°
2026-05-03 21:07 34.66190 -90.36129 39132 ft 502 kts 119°
2026-05-03 21:08 34.62857 -90.28656 39117 ft 501 kts 119°
2026-05-03 21:08 34.59546 -90.21247 39123 ft 501 kts 119°
2026-05-03 21:09 34.56212 -90.13803 39127 ft 501 kts 119°
2026-05-03 21:09 34.52871 -90.06357 39128 ft 501 kts 119°
2026-05-03 21:10 34.49429 -89.99055 39142 ft 500 kts 127°
2026-05-03 21:10 34.45401 -89.92193 39130 ft 498 kts 127°
2026-05-03 21:11 34.41374 -89.85363 39128 ft 498 kts 127°
2026-05-03 21:11 34.37344 -89.78545 39129 ft 498 kts 127°
2026-05-03 21:12 34.33323 -89.71756 39131 ft 498 kts 127°
2026-05-03 21:12 34.29273 -89.64930 39146 ft 498 kts 127°
2026-05-03 21:13 34.25249 -89.58161 39146 ft 498 kts 127°
2026-05-03 21:13 34.21875 -89.52496 39146 ft 498 kts 127°
2026-05-03 21:14 34.17823 -89.45703 39143 ft 498 kts 128°
2026-05-03 21:14 34.13763 -89.38910 39146 ft 498 kts 128°
2026-05-03 21:15 34.09696 -89.32119 39149 ft 498 kts 128°
2026-05-03 21:15 34.05656 -89.25384 39152 ft 498 kts 128°
2026-05-03 21:16 34.01590 -89.18619 39154 ft 496 kts 128°
2026-05-03 21:16 33.97536 -89.11886 39154 ft 495 kts 128°
2026-05-03 21:17 33.93481 -89.05165 39147 ft 496 kts 128°
2026-05-03 21:17 33.89410 -88.98429 39156 ft 497 kts 128°
2026-05-03 21:18 33.85357 -88.91736 39167 ft 497 kts 128°
2026-05-03 21:18 33.81269 -88.84996 39165 ft 497 kts 129°
2026-05-03 21:19 33.77211 -88.78318 39162 ft 496 kts 129°
2026-05-03 21:19 33.73120 -88.71600 39144 ft 496 kts 129°
2026-05-03 21:20 33.69036 -88.64905 39129 ft 496 kts 129°
2026-05-03 21:20 33.64970 -88.58252 39115 ft 497 kts 129°
2026-05-03 21:21 33.60867 -88.51550 39105 ft 498 kts 129°
2026-05-03 21:21 33.56762 -88.44857 39114 ft 497 kts 129°
2026-05-03 21:22 33.52654 -88.38171 39119 ft 496 kts 129°
2026-05-03 21:22 33.48582 -88.31556 39124 ft 496 kts 130°
2026-05-03 21:23 33.44476 -88.24898 39129 ft 496 kts 130°
2026-05-03 21:23 33.40365 -88.18245 39141 ft 496 kts 130°
2026-05-03 21:24 33.36249 -88.11594 39139 ft 496 kts 130°
2026-05-03 21:24 33.32160 -88.04999 39145 ft 495 kts 130°
2026-05-03 21:25 33.28059 -87.98397 39146 ft 495 kts 130°
2026-05-03 21:25 33.23949 -87.91792 39149 ft 495 kts 130°
2026-05-03 21:26 33.19829 -87.85183 39140 ft 495 kts 130°
2026-05-03 21:26 33.15739 -87.78634 39137 ft 495 kts 130°
2026-05-03 21:27 33.11612 -87.72038 39127 ft 495 kts 131°
2026-05-03 21:27 33.07492 -87.65463 39135 ft 494 kts 131°
2026-05-03 21:28 33.03397 -87.58942 39147 ft 493 kts 131°
2026-05-03 21:28 32.99278 -87.52392 39158 ft 493 kts 131°
2026-05-03 21:29 32.95154 -87.45847 39160 ft 493 kts 131°
2026-05-03 21:29 32.91029 -87.39310 39165 ft 493 kts 131°
2026-05-03 21:30 32.86920 -87.32812 39157 ft 493 kts 131°
2026-05-03 21:30 32.82779 -87.26275 39162 ft 495 kts 133°
2026-05-03 21:31 32.78628 -87.19731 39141 ft 495 kts 133°
2026-05-03 21:31 32.74509 -87.13250 39140 ft 495 kts 133°
2026-05-03 21:32 32.70349 -87.06718 39133 ft 495 kts 133°
2026-05-03 21:32 32.66192 -87.00201 39120 ft 494 kts 133°
2026-05-03 21:33 32.62056 -86.93727 39106 ft 494 kts 133°
2026-05-03 21:33 32.57890 -86.87218 39062 ft 494 kts 134°
2026-05-03 21:34 32.53707 -86.80693 39099 ft 497 kts 133°
2026-05-03 21:34 32.49532 -86.74193 39104 ft 497 kts 134°
2026-05-03 21:35 32.45331 -86.67663 39097 ft 497 kts 134°
2026-05-03 21:35 32.41151 -86.61174 39120 ft 497 kts 134°
2026-05-03 21:36 32.36951 -86.54665 39116 ft 497 kts 134°
2026-05-03 21:36 32.32756 -86.48176 39145 ft 496 kts 134°
2026-05-03 21:37 32.28557 -86.41690 39123 ft 496 kts 134°
2026-05-03 21:37 32.24373 -86.35239 39150 ft 498 kts 134°
2026-05-03 21:38 32.19724 -86.29417 39163 ft 482 kts 147°
2026-05-03 21:38 32.14641 -86.24130 39144 ft 484 kts 147°
2026-05-03 21:39 32.09583 -86.18908 39139 ft 485 kts 147°
2026-05-03 21:39 32.04522 -86.13697 39142 ft 483 kts 147°
2026-05-03 21:40 31.99442 -86.08474 39128 ft 483 kts 148°
2026-05-03 21:40 31.94362 -86.03260 39145 ft 484 kts 148°
2026-05-03 21:41 31.89271 -85.98042 39144 ft 484 kts 148°
2026-05-03 21:41 31.84208 -85.92860 39150 ft 484 kts 148°
2026-05-03 21:42 31.79105 -85.87646 39145 ft 484 kts 148°
2026-05-03 21:42 31.74371 -85.81958 39152 ft 493 kts 141°
2026-05-03 21:43 31.69736 -85.75950 39129 ft 494 kts 141°
2026-05-03 21:43 31.65139 -85.69978 39141 ft 495 kts 141°
2026-05-03 21:44 31.60536 -85.64007 39118 ft 495 kts 141°
2026-05-03 21:44 31.55908 -85.58013 39117 ft 495 kts 141°
2026-05-03 21:45 31.51275 -85.52022 39114 ft 495 kts 141°
2026-05-03 21:45 31.46675 -85.46084 39141 ft 495 kts 141°
2026-05-03 21:46 31.42041 -85.40109 39124 ft 494 kts 142°
2026-05-03 21:46 31.37398 -85.34135 39154 ft 495 kts 142°
2026-05-03 21:47 31.32785 -85.28208 39149 ft 495 kts 142°
2026-05-03 21:47 31.28148 -85.22260 39139 ft 495 kts 142°
2026-05-03 21:48 31.23499 -85.16306 39140 ft 495 kts 142°
2026-05-03 21:48 31.18849 -85.10358 39129 ft 494 kts 142°
2026-05-03 21:49 31.14228 -85.04456 39072 ft 495 kts 143°
2026-05-03 21:49 31.09574 -84.98524 39132 ft 494 kts 143°
2026-05-03 21:50 31.04949 -84.92637 39124 ft 494 kts 143°
2026-05-03 21:50 31.00299 -84.86727 39131 ft 494 kts 143°
2026-05-03 21:51 30.95645 -84.80821 39124 ft 494 kts 143°
2026-05-03 21:51 30.90986 -84.74920 39133 ft 494 kts 143°
2026-05-03 21:52 30.86351 -84.69056 39125 ft 494 kts 143°
2026-05-03 21:52 30.81683 -84.63160 39112 ft 493 kts 144°
2026-05-03 21:53 30.77054 -84.57322 39126 ft 493 kts 144°
2026-05-03 21:53 30.72401 -84.51463 39123 ft 493 kts 144°
2026-05-03 21:54 30.67732 -84.45594 39133 ft 493 kts 144°
2026-05-03 21:54 30.63088 -84.39763 39126 ft 493 kts 144°
2026-05-03 21:55 30.58442 -84.33940 39123 ft 493 kts 144°
2026-05-03 21:55 30.53761 -84.28081 39109 ft 493 kts 145°
2026-05-03 21:56 30.49125 -84.22287 39121 ft 492 kts 145°
2026-05-03 21:56 30.44460 -84.16463 39111 ft 491 kts 145°
2026-05-03 21:57 30.40577 -84.11624 39124 ft 492 kts 145°
2026-05-03 21:57 30.35561 -84.06584 39122 ft 456 kts 163°
2026-05-03 21:58 30.30076 -84.02827 39115 ft 460 kts 163°
2026-05-03 21:58 30.24531 -83.99106 39067 ft 459 kts 163°
2026-05-03 21:59 30.18973 -83.95419 39109 ft 460 kts 164°
2026-05-03 21:59 30.13457 -83.91768 39099 ft 459 kts 164°
2026-05-03 22:00 30.07897 -83.88093 39095 ft 457 kts 164°
2026-05-03 22:00 30.02400 -83.84464 39106 ft 457 kts 164°
2026-05-03 22:01 29.96865 -83.80814 39104 ft 457 kts 164°
2026-05-03 22:01 29.91358 -83.77188 39101 ft 458 kts 164°
2026-05-03 22:02 29.85812 -83.73539 39102 ft 458 kts 164°
2026-05-03 22:02 29.80270 -83.69900 39100 ft 458 kts 165°
2026-05-03 22:03 29.74765 -83.66289 39098 ft 458 kts 165°
2026-05-03 22:03 29.69210 -83.62650 39098 ft 458 kts 165°
2026-05-03 22:04 29.63659 -83.59018 39076 ft 459 kts 165°
2026-05-03 22:04 29.58128 -83.55404 39097 ft 460 kts 165°
2026-05-03 22:05 29.52569 -83.51776 39086 ft 458 kts 165°
2026-05-03 22:05 29.47029 -83.48166 39092 ft 457 kts 165°
2026-05-03 22:06 29.41484 -83.44556 39086 ft 457 kts 165°
2026-05-03 22:06 29.35973 -83.40974 39047 ft 457 kts 165°
2026-05-03 22:07 29.30423 -83.37370 39085 ft 458 kts 165°
2026-05-03 22:07 29.24946 -83.33651 39076 ft 471 kts 158°
2026-05-03 22:08 29.19666 -83.29153 39079 ft 473 kts 158°
2026-05-03 22:08 29.14382 -83.24630 39079 ft 473 kts 157°
2026-05-03 22:09 29.09107 -83.20116 39086 ft 473 kts 158°
2026-05-03 22:10 29.01186 -83.13348 39076 ft 476 kts 158°
2026-05-03 22:10 28.95876 -83.08819 39078 ft 475 kts 158°
2026-05-03 22:11 28.90603 -83.04327 39074 ft 475 kts 158°
2026-05-03 22:11 28.85295 -82.99811 39074 ft 475 kts 158°
2026-05-03 22:12 28.79981 -82.95296 39073 ft 475 kts 158°
2026-05-03 22:12 28.74677 -82.90795 39044 ft 476 kts 157°
2026-05-03 22:13 28.69382 -82.86308 39070 ft 477 kts 157°
2026-05-03 22:13 28.64050 -82.81795 39075 ft 476 kts 157°
2026-05-03 22:14 28.58732 -82.77299 38881 ft 474 kts 157°
2026-05-03 22:14 28.56094 -82.75071 38625 ft 470 kts 157°
2026-05-03 22:14 28.53502 -82.72884 38345 ft 469 kts 157°
2026-05-03 22:14 28.50880 -82.70673 38070 ft 469 kts 157°
2026-05-03 22:15 28.48254 -82.68459 37797 ft 470 kts 157°
2026-05-03 22:15 28.45626 -82.66246 37471 ft 471 kts 156°
2026-05-03 22:15 28.42986 -82.64024 37197 ft 472 kts 156°
2026-05-03 22:15 28.40342 -82.61799 36931 ft 473 kts 156°
2026-05-03 22:16 28.37695 -82.59574 36675 ft 473 kts 156°
2026-05-03 22:16 28.35044 -82.57347 36418 ft 474 kts 156°
2026-05-03 22:16 28.32425 -82.55148 36165 ft 474 kts 156°
2026-05-03 22:16 28.29762 -82.52913 35914 ft 474 kts 156°
2026-05-03 22:17 28.27104 -82.50684 35668 ft 475 kts 156°
2026-05-03 22:17 28.24437 -82.48449 35422 ft 475 kts 156°
2026-05-03 22:17 28.21769 -82.46215 35175 ft 476 kts 156°
2026-05-03 22:17 28.19099 -82.43981 34935 ft 476 kts 156°
2026-05-03 22:18 28.16431 -82.41749 34696 ft 477 kts 156°
2026-05-03 22:18 28.13794 -82.39543 34414 ft 479 kts 156°
2026-05-03 22:18 28.11105 -82.37297 34143 ft 481 kts 156°
2026-05-03 22:18 28.08413 -82.35048 33885 ft 482 kts 156°
2026-05-03 22:19 28.05711 -82.32793 33609 ft 482 kts 156°
2026-05-03 22:19 28.02893 -82.30908 33312 ft 458 kts 170°
2026-05-03 22:19 27.99918 -82.29751 33067 ft 451 kts 173°
2026-05-03 22:19 27.96929 -82.28655 32817 ft 451 kts 174°
2026-05-03 22:20 27.93925 -82.27594 32571 ft 452 kts 174°
2026-05-03 22:20 27.90920 -82.26556 32331 ft 452 kts 174°
2026-05-03 22:20 27.87933 -82.25538 32105 ft 453 kts 174°
2026-05-03 22:20 27.84914 -82.24514 31830 ft 454 kts 173°
2026-05-03 22:21 27.81878 -82.23488 31560 ft 455 kts 173°
2026-05-03 22:21 27.78827 -82.22457 31326 ft 456 kts 173°
2026-05-03 22:21 27.75773 -82.21427 31118 ft 457 kts 172°
2026-05-03 22:22 27.69658 -82.19365 31063 ft 459 kts 172°
2026-05-03 22:22 27.63528 -82.17300 31062 ft 459 kts 172°
2026-05-03 22:23 27.57399 -82.15277 31064 ft 460 kts 173°
2026-05-03 22:23 27.51247 -82.13249 31062 ft 460 kts 173°
2026-05-03 22:24 27.45117 -82.11229 30517 ft 454 kts 172°
2026-05-03 22:24 27.42110 -82.10241 29437 ft 458 kts 172°
2026-05-03 22:24 27.39051 -82.09235 28573 ft 450 kts 172°
2026-05-03 22:24 27.36118 -82.08268 28078 ft 429 kts 172°
2026-05-03 22:25 27.33301 -82.07329 27685 ft 418 kts 172°
2026-05-03 22:25 27.30520 -82.06400 27275 ft 414 kts 172°
2026-05-03 22:25 27.27793 -82.05489 26879 ft 412 kts 172°
2026-05-03 22:25 27.25047 -82.04571 26494 ft 409 kts 172°
2026-05-03 22:26 27.22317 -82.03659 26069 ft 408 kts 172°
2026-05-03 22:26 27.19597 -82.02751 25675 ft 406 kts 172°
2026-05-03 22:26 27.16896 -82.01850 25303 ft 404 kts 172°
2026-05-03 22:26 27.14236 -82.00963 24932 ft 401 kts 172°
2026-05-03 22:27 27.11564 -82.00073 24563 ft 399 kts 172°
2026-05-03 22:27 27.08907 -81.99187 24282 ft 398 kts 172°
2026-05-03 22:27 27.06258 -81.98292 24106 ft 399 kts 169°
2026-05-03 22:27 27.03734 -81.96861 23871 ft 415 kts 152°
2026-05-03 22:28 27.01600 -81.94592 23673 ft 429 kts 137°
2026-05-03 22:28 26.99693 -81.92020 23445 ft 428 kts 137°
2026-05-03 22:28 26.97782 -81.89459 23215 ft 427 kts 137°
2026-05-03 22:28 26.95882 -81.86893 22984 ft 426 kts 137°
2026-05-03 22:29 26.93994 -81.84340 22743 ft 425 kts 137°
2026-05-03 22:29 26.92114 -81.81795 22505 ft 423 kts 137°
2026-05-03 22:29 26.90265 -81.79295 22312 ft 421 kts 137°
2026-05-03 22:29 26.88389 -81.76758 22109 ft 420 kts 137°
2026-05-03 22:30 26.86515 -81.74243 21860 ft 418 kts 137°
2026-05-03 22:30 26.84632 -81.71773 21471 ft 416 kts 137°
2026-05-03 22:30 26.82755 -81.69307 21142 ft 414 kts 137°
2026-05-03 22:30 26.80890 -81.66857 20829 ft 412 kts 137°
2026-05-03 22:31 26.79059 -81.64452 20518 ft 410 kts 137°
2026-05-03 22:31 26.77212 -81.62027 20215 ft 407 kts 137°
2026-05-03 22:31 26.75378 -81.59619 19911 ft 405 kts 137°
2026-05-03 22:31 26.73553 -81.57225 19586 ft 404 kts 137°
2026-05-03 22:32 26.71731 -81.54837 19299 ft 402 kts 137°
2026-05-03 22:32 26.69964 -81.52408 18915 ft 406 kts 129°
2026-05-03 22:32 26.68742 -81.49531 18530 ft 413 kts 110°
2026-05-03 22:32 26.68335 -81.46344 18122 ft 416 kts 91°
2026-05-03 22:33 26.68764 -81.43197 17692 ft 414 kts 75°
2026-05-03 22:33 26.69496 -81.40083 17250 ft 412 kts 76°
2026-05-03 22:33 26.70212 -81.36991 16825 ft 409 kts 76°
2026-05-03 22:33 26.70930 -81.33918 16402 ft 405 kts 76°
2026-05-03 22:34 26.71644 -81.30867 15993 ft 403 kts 76°
2026-05-03 22:34 26.72353 -81.27835 15575 ft 401 kts 76°
2026-05-03 22:34 26.73049 -81.24858 15170 ft 400 kts 76°
2026-05-03 22:34 26.73752 -81.21846 14720 ft 400 kts 76°
2026-05-03 22:35 26.74453 -81.18845 14346 ft 396 kts 76°
2026-05-03 22:35 26.75144 -81.15878 14027 ft 391 kts 76°
2026-05-03 22:35 26.75825 -81.12954 13684 ft 385 kts 76°
2026-05-03 22:35 26.76495 -81.10071 13328 ft 380 kts 76°
2026-05-03 22:36 26.77158 -81.07218 12995 ft 377 kts 76°
2026-05-03 22:36 26.77817 -81.04380 12679 ft 376 kts 76°
2026-05-03 22:36 26.78469 -81.01557 12363 ft 374 kts 77°
2026-05-03 22:36 26.78783 -80.98687 11994 ft 369 kts 89°
2026-05-03 22:37 26.78890 -80.95853 11681 ft 358 kts 88°
2026-05-03 22:37 26.79004 -80.93126 11357 ft 343 kts 88°
2026-05-03 22:37 26.79116 -80.90514 11068 ft 328 kts 88°
2026-05-03 22:37 26.79223 -80.88038 10811 ft 317 kts 88°
2026-05-03 22:38 26.79329 -80.85582 10536 ft 314 kts 88°
2026-05-03 22:38 26.79435 -80.83146 10249 ft 312 kts 88°
2026-05-03 22:38 26.79536 -80.80729 9962 ft 309 kts 88°
2026-05-03 22:38 26.79631 -80.78334 9638 ft 307 kts 88°
2026-05-03 22:39 26.79534 -80.75965 9296 ft 304 kts 106°
2026-05-03 22:39 26.78852 -80.73737 9025 ft 303 kts 112°
2026-05-03 22:39 26.78131 -80.71502 8687 ft 308 kts 112°
2026-05-03 22:39 26.77394 -80.69252 8307 ft 305 kts 111°
2026-05-03 22:40 26.76672 -80.67054 7906 ft 297 kts 112°
2026-05-03 22:40 26.75961 -80.64922 7606 ft 291 kts 112°
2026-05-03 22:40 26.75258 -80.62808 7304 ft 289 kts 112°
2026-05-03 22:40 26.74794 -80.61413 7098 ft 288 kts 112°
2026-05-03 22:41 26.74095 -80.59313 6778 ft 287 kts 112°
2026-05-03 22:41 26.73371 -80.57225 6427 ft 288 kts 113°
2026-05-03 22:41 26.72406 -80.54462 5965 ft 287 kts 113°
2026-05-03 22:41 26.71916 -80.53057 5738 ft 286 kts 112°
2026-05-03 22:42 26.71197 -80.50995 5433 ft 281 kts 112°
2026-05-03 22:42 26.70503 -80.48994 5127 ft 272 kts 112°
2026-05-03 22:42 26.70019 -80.47032 5065 ft 251 kts 95°
2026-05-03 22:42 26.69927 -80.45166 5109 ft 232 kts 95°
2026-05-03 22:43 26.69832 -80.43364 5114 ft 232 kts 92°
2026-05-03 22:43 26.69761 -80.41569 5051 ft 229 kts 96°
2026-05-03 22:43 26.69640 -80.39791 5006 ft 229 kts 94°
2026-05-03 22:43 26.69541 -80.38014 5007 ft 229 kts 94°
2026-05-03 22:44 26.69438 -80.36258 4932 ft 229 kts 95°
2026-05-03 22:44 26.69354 -80.34477 4624 ft 228 kts 92°
2026-05-03 22:44 26.69277 -80.32724 4370 ft 224 kts 94°
2026-05-03 22:44 26.69196 -80.30996 4067 ft 219 kts 92°
2026-05-03 22:45 26.69119 -80.29327 3666 ft 214 kts 92°
2026-05-03 22:45 26.69044 -80.27672 3176 ft 210 kts 91°
2026-05-03 22:45 26.68963 -80.26069 2767 ft 204 kts 91°
2026-05-03 22:45 26.68904 -80.24503 2483 ft 200 kts 91°
2026-05-03 22:46 26.68843 -80.22931 2204 ft 203 kts 90°
2026-05-03 22:46 26.68780 -80.21406 1957 ft 192 kts 89°
2026-05-03 22:46 26.68721 -80.19914 1685 ft 188 kts 91°
2026-05-03 22:46 26.68649 -80.18474 1455 ft 182 kts 91°
2026-05-03 22:47 26.68591 -80.17093 1184 ft 174 kts 90°
2026-05-03 22:47 26.68535 -80.15834 986 ft 151 kts 89°
2026-05-03 22:47 26.68480 -80.14710 782 ft 141 kts 89°
2026-05-03 22:47 26.68414 -80.13640 596 ft 138 kts 88°
2026-05-03 22:48 26.68377 -80.12589 375 ft 138 kts 86°
2026-05-03 22:48 26.68344 -80.11514 201 ft 139 kts 89°
2026-05-03 22:48 26.68304 -80.10478 68 ft 125 kts 89°
2026-05-03 22:48 26.68269 -80.09569 34 ft 104 kts 93°
2026-05-03 22:49 26.68246 -80.09021 28 ft 42 kts 95°
2026-05-03 22:49 26.68228 -80.08845 28 ft 4 kts 92°
2026-05-03 22:49 26.68225 -80.08768 30 ft 17 kts 92°
2026-05-03 22:49 26.68203 -80.08631 31 ft 14 kts 115°
2026-05-03 22:50 26.68129 -80.08540 32 ft 17 kts 137°
2026-05-03 22:50 26.68076 -80.08485 34 ft 10 kts 137°
2026-05-03 22:50 26.68019 -80.08426 34 ft 10 kts 137°
2026-05-03 22:50 26.67990 -80.08359 33 ft 11 kts 86°
2026-05-03 22:51 26.67968 -80.08295 32 ft 9 kts 128°
2026-05-03 22:51 26.67934 -80.08253 32 ft 7 kts 138°
2026-05-03 22:51 26.67914 -80.08240 32 ft 0 kts 158°